Location: Bottenau
(48.5138°N, 8.0462°E)
Time: 20:27:40
(UTC+00:00)

Cosmos 2237 Rocket - Pass Details

Date: 18 April 2021
Orbit: 836 x 848 km, 71.0° (Epoch: 17 May)

Event Time Altitude Azimuth Distance (km) Brightness Sun altitude
Rises 19:33:27 0° 334° (NNW) 3,407 6.4 -11.3°
Reaches altitude 10° 19:36:01 10° 341° (NNW) 2,466 5.4 -11.7°
Maximum altitude 19:41:27 45° 54° (NE) 1,127 2.7 -12.4°
Enters shadow 19:45:20 18° 120° (ESE) 1,937 3.4 -13.0°
